Location: T. Spence Memorial Observatory
(32.7356°N, 82.2098°W)
Time: 02:25:46
(UTC-04:00)

Daily predictions for brighter satellites

Satellite Brightness Start Highest point End
(mag) Time Altitude Azimuth Time Altitude Azimuth Time Altitude Azimuth
ADEOS II 4.5 04:12:52 10° NE 04:16:05 16° E 04:16:28 16° E
Cosmos 2322 Rocket 4.0 04:42:37 22° N 04:42:37 22° N 04:44:42 10° N
SL-16 R/B 3.9 04:45:39 24° N 04:45:39 24° N 04:47:55 10° N
Lacrosse 5 3.4 04:44:39 32° ENE 04:44:39 32° ENE 04:48:17 10° ESE
Okean O Rocket 3.6 04:45:22 10° NNE 04:47:43 27° NE 04:47:43 27° NE
Aureole 3 Rocket 4.5 05:03:05 49° SSE 05:05:12 78° E 05:14:01 10° N
Cosmos 2360 Rocket 2.4 05:12:48 61° N 05:12:48 61° N 05:17:34 10° NNE
USA 215 3.7 05:06:06 10° ESE 05:12:31 60° NE 05:18:58 10° NW
CENTAUR R/B 4.3 05:16:52 18° NNW 05:16:52 18° NNW 05:20:35 10° N
Cosmos 1455 Rocket 3.7 05:12:29 10° N 05:16:48 52° E 05:17:02 52° E
IRS-1C Rocket 4.0 05:16:56 10° NNE 05:22:13 83° ESE 05:22:50 70° S
Delta 142 4.4 05:22:49 59° SSW 05:23:01 59° S 05:28:21 10° ESE
Tiangong 2 4.1 05:25:36 12° NNE 05:25:36 12° NNE 05:26:21 10° NNE
Cosmos 1570 Rocket 4.2 05:24:07 48° SSE 05:25:27 66° ESE 05:30:38 10° NNE
PAYLOAD B 4.1 05:20:07 10° NNE 05:25:45 89° WNW 05:26:57 58° SSW
Meteor 1-18 Rocket 4.2 05:26:58 61° NW 05:26:58 61° NW 05:32:01 10° N
Cosmos 1340 4.3 05:34:52 25° N 05:34:52 25° N 05:36:35 10° N
Cosmos 2333 Rocket 4.1 05:28:32 10° SSE 05:33:17 28° ESE 05:38:05 10° NE
Cosmos 2263 Rocket 3.1 05:30:09 10° NNW 05:38:11 30° S 05:41:01 10° S
Cosmos 1536 Rocket 3.5 05:36:48 75° NW 05:36:48 75° NW 05:41:02 10° N
Meteor 1-31 Rocket 4.3 05:35:21 10° NNE 05:38:50 34° E 05:42:16 10° SSE
ISS -1.9 05:40:53 24° N 05:41:44 28° NE 05:44:38 10° E
Cosmos 2327 Rocket 4.4 05:35:40 10° NNW 05:41:52 65° W 05:47:57 10° S
Cosmos 1743 4.2 05:38:50 10° NNE 05:42:26 37° E 05:46:00 10° SSE
Cosmos 2322 4.0 05:42:22 46° WNW 05:42:40 46° WNW 05:48:09 10° N
ASTRO E2 3.2 05:43:25 49° SSE 05:43:25 49° SSE 05:46:46 10° ESE
Meteor 1-13 Rocket 4.4 05:37:36 10° S 05:43:03 69° E 05:48:35 10° NNE
EO 1 Del DPAF 3.6 05:44:26 51° NNW 05:44:26 51° NNW 05:47:24 10° NNW
CZ-2C R/B 3.7 05:41:15 10° SSE 05:45:54 85° ENE 05:50:27 10° N
Cosmos 1610 Rocket 4.4 05:41:06 10° N 05:47:22 82° W 05:53:42 10° S
Nadezhda 1 Rocket 3.9 05:45:26 37° SW 05:47:37 57° W 05:53:35 10° N
Lacrosse 4 Rocket 2.8 05:44:00 10° N 05:47:58 40° ENE 05:52:00 10° SE
DELTA 2 R/B (1) 3.6 05:49:49 44° W 05:51:29 66° NNW 05:57:00 10° ENE
Cosmos 1975 3.3 05:51:58 10° NNW 05:55:04 43° NW 05:55:04 43° NW
ADEOS II 2.3 05:50:57 10° N 05:55:59 48° WNW 05:57:26 38° WSW
PSLV R/B 3.9 05:54:53 10° N 05:58:59 42° WNW 05:59:09 42° W
Cosmos 1777 Rocket 4.1 05:56:21 10° NNW 06:01:30 53° WSW 06:06:37 10° S
Cosmos 2333 4.1 05:58:08 24° SSW 06:01:37 74° WNW 06:07:18 10° NNE
Cosmos 2341 Rocket 4.3 05:55:31 10° N 06:01:45 70° E 06:07:55 10° SSE
Cosmos 2074 Rocket 4.4 05:58:41 10° NNW 06:04:19 37° W 06:09:56 10° SSW
SAR-Lupe-3 4.3 06:01:29 10° S 06:04:54 65° WSW 06:08:22 10° NNW
OAO 3 Copernicus 4.3 06:11:26 29° W 06:13:58 76° N 06:19:00 10° ENE
CZ-4B R/B 3.9 06:10:45 10° N 06:15:44 33° WNW 06:18:19 22° WSW
Meteor PRIRODA 4.2 06:18:09 10° N 06:21:38 37° WNW 06:23:26 23° SW
Okean 2 4.1 06:19:43 10° S 06:23:46 56° E 06:27:51 10° NNE
Meteor 1-23 Rocket 4.4 06:18:11 10° S 06:23:59 81° E 06:29:47 10° N
Cosmos 1980 4.0 06:19:55 10° S 06:25:30 69° ESE 06:31:08 10° NNE
Okean O Rocket 3.4 06:23:02 10° NNW 06:25:11 15° WNW 06:25:11 15° WNW
Lacrosse 5 2.7 06:23:59 19° WNW 06:26:28 29° WSW 06:30:46 10° S
Cosmos 1814 Rocket 4.3 06:22:44 10° S 06:27:55 69° ESE 06:33:04 10° NNE
COSMOS 2428 3.3 06:25:18 18° WSW 06:28:54 36° WNW 06:34:07 10° N
Aureole 2 Rocket 3.3 06:26:27 10° S 06:30:15 56° ESE 06:33:47 10° NNE
Cosmos 2285 Rocket 4.0 06:25:12 10° SSW 06:31:38 81° WNW 06:38:06 10° NNE
Okean-O 2.9 06:29:48 10° N 06:34:02 46° WNW 06:38:16 10° SSW
COSMO-SKYMED 1 3.5 06:31:44 10° SSE 06:35:57 53° ENE 06:40:11 10° N
Cosmos 1238 Rocket 3.8 06:37:41 17° WNW 06:37:41 17° WNW 06:39:36 10° NW
Radarsat Rocket 4.0 06:31:56 10° NNE 06:37:52 81° ESE 06:43:42 10° SSW
Cosmos 2219 Rocket 2.3 06:34:31 10° SW 06:39:56 52° WNW 06:45:24 10° N
ERS-2 3.4 06:37:55 10° NNW 06:40:53 23° WNW 06:43:21 13° WSW
Meteor 2-9 Rocket 4.2 06:37:28 10° N 06:43:10 83° W 06:48:40 10° S
GENESIS II 4.4 06:39:49 10° SSW 06:43:52 81° ESE 06:47:57 10° NNE
Cosmos 1437 2.7 06:42:52 10° SSW 06:46:07 77° W 06:49:24 10° N
GPS 2-04 Rocket1 3.6 06:43:35 10° SW 06:47:12 38° SSE 06:50:40 10° E
GOES 2 Rocket 4.1 06:43:09 13° WSW 06:47:49 59° S 06:54:44 10° E
Cosmos 1726 Rocket 4.3 06:45:30 10° N 06:49:54 60° E 06:54:18 10° SSE
Meteor 1-28 Rocket 3.8 06:47:22 10° SSE 06:51:06 62° ENE 06:54:53 10° N
Cosmos 1892 Rocket 3.6 06:47:10 10° S 06:51:28 88° E 06:55:50 10° N
Thor Agena Rocket 3.5 06:47:11 10° S 06:52:10 59° WSW 06:57:09 10° NNW
Cosmos 1025 Rocket 3.5 06:49:10 10° SSW 06:53:15 39° W 06:57:23 10° N
Cosmos 1844 Rocket 2.7 06:48:53 10° NNW 06:54:22 60° WSW 06:59:48 10° S
Cosmos 1959 Rocket 4.5 06:48:56 10° N 06:55:03 86° W 07:01:11 10° S
NOSS 0 Rocket 4.0 06:49:28 10° SW 06:55:34 60° WNW 07:01:40 10° NNE
USA 215 4.0 06:50:01 10° S 06:55:39 31° SW 07:01:18 10° WNW
Meteor 2-4 Rocket 4.2 06:52:56 10° SW 06:58:08 37° WNW 07:03:14 10° N
Cosmos 1441 Rocket 3.6 06:55:56 10° S 06:59:49 74° E 07:03:48 10° NNE
Tiangong 2 3.0 06:59:25 10° NW 07:02:05 25° NNE 07:04:46 10° E
Cosmos 405 Rocket 3.3 06:58:15 10° SSW 07:02:06 41° W 07:05:57 10° N
Cosmos 2278 Rocket 2.9 06:56:30 10° NNW 07:02:07 61° ENE 07:07:41 10° SSE
Cosmos 2237 Rocket 2.3 06:57:44 10° SSW 07:03:18 59° WNW 07:08:56 10° NNE
Cosmos 2366 rocket 4.1 06:58:51 10° N 07:05:12 81° W 07:11:33 10° S
Cosmos 2150 Rocket 4.2 07:00:40 10° NNW 07:05:59 87° ENE 07:11:22 10° SSE
USA 229 DEB 4.2 07:00:15 10° WSW 07:06:38 41° NW 07:13:09 10° NNE
USA 229 4.2 07:00:21 10° WSW 07:06:45 42° NW 07:13:15 10° NNE
